Bolton Field, OH

12:15 PM EDT on September 24, 2017 (GMT -0400)
Bolton

Weather History for KTZR - October, 2012

Change the Weather History Date:

Sunday, October 14, 2012

  Actual Average Record
Temperature  
Mean Temperature 66 °F -  
Max Temperature 73 °F 64 °F 77 °F (2000)
Min Temperature 60 °F 44 °F 35 °F (2002)
Cooling Degree Days 2    
Growing Degree Days 16 (Base 50)    
Moisture  
Dew Point 57 °F    
Average Humidity 75    
Maximum Humidity 86    
Minimum Humidity 57    
Precipitation  
Precipitation 0.00 in - - ()
Sea Level Pressure  
Sea Level Pressure 29.92 in    
Wind  
Wind Speed 10 mph (South)    
Max Wind Speed 30 mph    
Max Gust Speed 38 mph    
Visibility 10 miles    
Events Rain    
Averages and records for this station are not official NWS values.
T = Trace of Precipitation, MM = Missing Value Source: NWS Daily Summary

Daily Weather History Graph

Daily Weather History Graph

Search for Another Location

Airport or City:

Trip Planner

Search our weather history database for the weather conditions in past years. The results will help you decide how hot, cold, wet, or windy it might be!

Date:

Astronomy

Oct. 14, 2012 Rise Set
Actual Time 7:42 AM EDT 6:53 PM EDT
Civil Twilight 7:15 AM EDT 7:21 PM EDT
Nautical Twilight 6:43 AM EDT 7:52 PM EDT
Astronomical Twilight 6:12 AM EDT 8:23 PM EDT
Moon 6:40 AM EDT (10/14) 6:13 PM EDT (10/14)
Length of Visible Light 12h 05m
Length of Day
11h 11m
Waning Crescent, 1% of the Moon is Illuminated
Oct 14
Waning Crescent
Oct 15
New
Oct 21
First Quarter
Oct 29
Full
Nov 6
Last Quarter

Hourly Weather History & Observations

Time (EDT) Temp. Dew Point Humidity Pressure Visibility Wind Dir Wind Speed Gust Speed Precip Events Conditions
12:15 AM 62.1 °F 54.7 °F 77% 30.04 in 10.0 mi SSE 5.8 mph - N/A   Clear
12:35 AM 62.1 °F 54.7 °F 77% 30.04 in 10.0 mi South 5.8 mph - N/A   Clear
1:15 AM 60.1 °F 54.5 °F 82% 30.04 in 10.0 mi South 5.8 mph - N/A   Scattered Clouds
1:35 AM 61.7 °F 55.8 °F 81% 30.03 in 10.0 mi South 6.9 mph - N/A   Scattered Clouds
1:55 AM 62.6 °F 56.3 °F 80% 30.03 in 10.0 mi South 6.9 mph - N/A   Scattered Clouds
2:15 AM 63.7 °F 56.8 °F 78% 30.03 in 10.0 mi South 6.9 mph - N/A   Mostly Cloudy
2:35 AM 63.9 °F 57.2 °F 79% 30.03 in 10.0 mi South 8.1 mph - N/A   Mostly Cloudy
2:55 AM 64.6 °F 57.2 °F 77% 30.02 in 10.0 mi South 8.1 mph - N/A   Mostly Cloudy
3:15 AM 64.4 °F 57.2 °F 77% 30.02 in 10.0 mi South 9.2 mph - N/A   Mostly Cloudy
3:35 AM 64.4 °F 57.2 °F 77% 30.01 in 10.0 mi South 8.1 mph - N/A   Scattered Clouds
3:55 AM 63.0 °F 56.8 °F 80% 30.01 in 10.0 mi South 6.9 mph - N/A   Scattered Clouds
4:15 AM 62.8 °F 56.7 °F 80% 30.01 in 10.0 mi South 6.9 mph - N/A   Scattered Clouds
4:35 AM 62.2 °F 56.3 °F 81% 30.01 in 10.0 mi SSE 6.9 mph - N/A   Mostly Cloudy
4:55 AM 62.1 °F 55.9 °F 80% 30.01 in 10.0 mi South 6.9 mph - N/A   Mostly Cloudy
5:15 AM 63.0 °F 56.1 °F 78% 30.01 in 10.0 mi South 9.2 mph - N/A   Overcast
5:35 AM 63.5 °F 56.1 °F 77% 30.02 in 10.0 mi South 10.4 mph 16.1 mph N/A   Overcast
5:55 AM 63.5 °F 55.9 °F 76% 30.01 in 10.0 mi South 10.4 mph - N/A   Overcast
6:15 AM 63.1 °F 55.6 °F 76% 30.01 in 10.0 mi South 9.2 mph - N/A   Mostly Cloudy
6:35 AM 62.6 °F 55.4 °F 77% 30.01 in 10.0 mi South 9.2 mph - N/A   Scattered Clouds
6:55 AM 62.8 °F 55.4 °F 77% 30.01 in 10.0 mi South 10.4 mph 16.1 mph N/A   Mostly Cloudy
7:15 AM 63.5 °F 55.4 °F 75% 30.01 in 10.0 mi South 9.2 mph - N/A   Overcast
7:35 AM 63.5 °F 55.0 °F 74% 30.01 in 10.0 mi South 10.4 mph - N/A   Overcast
7:47 AM 64.4 °F 55.4 °F 73% 30.01 in 10.0 mi South 11.5 mph - N/A   Overcast
7:55 AM 63.9 °F 55.0 °F 73% 30.00 in 10.0 mi South 10.4 mph 18.4 mph N/A   Overcast
8:15 AM 64.2 °F 55.0 °F 72% 30.00 in 10.0 mi South 11.5 mph 18.4 mph N/A   Overcast
8:55 AM 66.2 °F 55.4 °F 68% 30.00 in 10.0 mi South 15.0 mph 23.0 mph N/A   Overcast
9:50 AM 66.2 °F 55.4 °F 68% 29.98 in 10.0 mi South 15.0 mph 26.5 mph N/A   Overcast
10:58 AM 71.6 °F 57.2 °F 60% 29.95 in 10.0 mi South 29.9 mph 34.5 mph N/A   Scattered Clouds
11:50 AM 73.4 °F 57.2 °F 57% 29.92 in 10.0 mi South 21.9 mph 32.2 mph N/A   Scattered Clouds
12:50 PM 73.4 °F 57.2 °F 57% 29.89 in 10.0 mi South 20.7 mph 38.0 mph N/A   Scattered Clouds
2:47 PM 73.4 °F 57.2 °F 57% 29.82 in 10.0 mi South 15.0 mph 35.7 mph N/A   Overcast
3:50 PM 71.6 °F 57.2 °F 60% 29.81 in 7.0 mi South 20.7 mph 29.9 mph N/A Rain Light Rain
4:11 PM 71.6 °F 59.0 °F 64% 29.79 in 10.0 mi South 16.1 mph 27.6 mph N/A   Overcast
4:47 PM 71.6 °F 59.0 °F 64% 29.77 in 10.0 mi South 18.4 mph 32.2 mph N/A Rain Light Rain
5:47 PM 69.8 °F 59.0 °F 68% 29.75 in 10.0 mi South 13.8 mph 21.9 mph N/A   Overcast
6:47 PM 71.6 °F 57.2 °F 60% 29.72 in 10.0 mi South 12.7 mph 23.0 mph N/A   Overcast
9:15 PM 64.9 °F 60.3 °F 85% 29.72 in 10.0 mi South 19.6 mph 26.5 mph N/A   Scattered Clouds
9:35 PM 64.8 °F 60.3 °F 85% 29.71 in 10.0 mi South 15.0 mph 23.0 mph N/A   Mostly Cloudy
9:55 PM 64.8 °F 60.1 °F 85% 29.71 in 10.0 mi South 19.6 mph 26.5 mph N/A   Scattered Clouds
10:15 PM 64.6 °F 60.1 °F 85% 29.72 in 10.0 mi SSW 15.0 mph 28.8 mph N/A   Scattered Clouds
10:35 PM 64.4 °F 60.1 °F 86% 29.72 in 10.0 mi South 15.0 mph 20.7 mph N/A   Mostly Cloudy
10:55 PM 64.4 °F 59.9 °F 85% 29.71 in 10.0 mi SSW 13.8 mph 20.7 mph N/A   Overcast
11:15 PM 64.8 °F 59.9 °F 84% 29.72 in 10.0 mi SSW 13.8 mph 21.9 mph N/A   Mostly Cloudy
11:35 PM 64.4 °F 59.9 °F 85% 29.72 in 10.0 mi SW 18.4 mph 25.3 mph N/A   Mostly Cloudy
11:55 PM 61.5 °F 55.2 °F 80% 29.73 in 10.0 mi WSW 15.0 mph 27.6 mph N/A   Overcast